Flag for Canada Weather past 2 weeks in Coral Harbour, Nunavut Territory, Canada

Now
-9 °F

Partly sunny.


Feels Like: -21 °F
Forecast: N/A
Wind: 5 mph from Southeast

Location: Coral Harbour

Current Time: Mar 31, 2015 at 5:40:45 PM

Latest Report: Mar 31, 2015 at 4:00 PM


Visibility: 15 mi

Pressure: 29.90 "Hg

Humidity: 70%

Dew point: -17 °F

Location of Coral HarbourLocation

Historic Weather in Coral Harbour — Graph

°F

Coral Harbour temperature yesterday

Maximum temperature yesterday: -8 °F (at 3:00 PM)
Minimum temperature yesterday: -29 °F (at 5:00 AM)
Average temperature yesterday: -19 °F

Past Weeks' High & Low Weather Summary

 TemperatureHumidityPressure
High19 °F (Mar 16, 4:00 PM)86% (Mar 16, 4:00 PM)30.10 "Hg (Mar 16, 4:00 PM)
Low-29 °F (Mar 30, 5:00 AM)57% (Mar 23, 11:00 AM)28.64 "Hg (Mar 16, 4:00 PM)
Average-12 °F67%29.80 "Hg
* Reported Mar 16 4:00 PM — Mar 31 4:00 PM, Coral Harbour, Weather by CustomWeather, © 2015

Note: Actual official high and low records may vary slightly from our data, if they occured in-between our weather recording intervals... More about our weather records

Advertising

Coral Harbour weather history for previous 24 hours

 ConditionsComfort  
Time TempWeatherWind HumidityBarometerVisibility
4:00 PM
Tue, Mar 31
-9 °FPartly sunny.5 mph70%29.90 "Hg15 mi
3:00 PM-8 °FPartly sunny.6 mph64%29.89 "Hg15 mi
2:00 PM-9 °FScattered clouds.6 mph70%29.89 "Hg15 mi
1:00 PM-9 °FPassing clouds.6 mph70%29.90 "Hg15 mi
12:00 PM-9 °FBroken clouds.5 mph64%29.90 "Hg15 mi
11:00 AM-11 °FScattered clouds.3 mph70%29.90 "Hg15 mi
10:00 AM-17 °FBroken clouds.7 mph63%29.89 "Hg15 mi
9:00 AM-20 °FBroken clouds.9 mph68%29.89 "Hg15 mi
8:00 AM-22 °FPassing clouds.8 mph68%29.89 "Hg15 mi
7:00 AM-26 °FPassing clouds.9 mph67%29.89 "Hg15 mi
6:00 AM-27 °FPassing clouds.10 mph67%29.88 "Hg15 mi
5:00 AM-27 °FClear.8 mph67%29.87 "Hg15 mi
4:00 AM-27 °FClear.9 mph67%29.87 "Hg15 mi
3:00 AM-26 °FClear.6 mph67%29.86 "Hg15 mi
2:00 AM-26 °FClear.10 mph61%29.86 "Hg15 mi
1:00 AM-26 °FClear.9 mph67%29.84 "Hg15 mi
12:00 AM-24 °FClear.14 mph61%29.84 "Hg15 mi
11:00 PM
Mon, Mar 30
-24 °FClear.13 mph68%29.83 "Hg15 mi
10:00 PM-20 °FPassing clouds.10 mph62%29.83 "Hg15 mi
9:00 PM-20 °FPassing clouds.13 mph62%29.82 "Hg15 mi
8:00 PM-18 °FPassing clouds.14 mph69%29.81 "Hg15 mi
6:00 PM-9 °FPassing clouds.6 mph64%29.79 "Hg15 mi
5:00 PM-9 °FPassing clouds.3 mph64%29.78 "Hg15 mi
Weather by CustomWeather, © 2015

See weather overviewHow to use our weather pages